Change the Weather History Date:

Wednesday, December 26, 2012

  Actual Average Record
Temperature  
Mean Temperature 34 °F -  
Max Temperature 39 °F 39 °F 56 °F (1982)
Min Temperature 30 °F 26 °F 0 °F (1980)
Degree Days  
Heating Degree Days 30    
Moisture  
Dew Point 29 °F    
Average Humidity 74    
Maximum Humidity 89    
Minimum Humidity 62    
Precipitation  
Precipitation 0.22 in - - ()
Sea Level Pressure  
Sea Level Pressure 30.20 in    
Wind  
Wind Speed 6 mph (ENE)    
Max Wind Speed 24 mph    
Max Gust Speed 33 mph    
Visibility 9 miles    
Events Rain    
Averages and records for this station are not official NWS values.
T = Trace of Precipitation, MM = Missing Value Source: NWS Daily Summary

Daily Weather History Graph

Daily Weather History Graph

Search for Another Location

Airport or City:

Trip Planner

Search our weather history database for the weather conditions in past years. The results will help you decide how hot, cold, wet, or windy it might be!

Date:

Astronomy

Dec. 26, 2012 Rise Set
Actual Time 7:05 AM EST 4:15 PM EST
Civil Twilight 6:34 AM EST 4:47 PM EST
Nautical Twilight 5:59 AM EST 5:22 PM EST
Astronomical Twilight 5:25 AM EST 5:56 PM EST
Moon 3:07 PM EST (12/26) 5:26 AM EST (12/26)
Length of Visible Light 10h 13m
Length of Day
9h 09m
Waxing Gibbous, 97% of the Moon is Illuminated
Dec 26
Waxing Gibbous
Dec 28
Full
Jan 4
Last Quarter
Jan 11
New
Jan 18
First Quarter

Hourly Weather History & Observations

Time (EST) Temp. Windchill Dew Point Humidity Pressure Visibility Wind Dir Wind Speed Gust Speed Precip Events Conditions
12:50 AM 37.4 °F 34.9 °F 30.2 °F 75% 30.19 in 10.0 mi NNW 3.5 mph - N/A   Overcast
1:52 AM 35.1 °F - 28.0 °F 76% 30.22 in 10.0 mi Calm Calm - N/A   Mostly Cloudy
2:52 AM 34.0 °F - 26.1 °F 73% 30.24 in 10.0 mi Calm Calm - N/A   Mostly Cloudy
3:52 AM 34.0 °F 29.8 °F 25.0 °F 70% 30.25 in 10.0 mi Variable 4.6 mph - N/A   Clear
4:52 AM 33.1 °F - 25.0 °F 72% 30.25 in 10.0 mi Calm Calm - N/A   Clear
5:52 AM 33.1 °F 28.7 °F 25.0 °F 72% 30.24 in 10.0 mi North 4.6 mph - N/A   Clear
6:52 AM 32.0 °F - 26.1 °F 79% 30.26 in 10.0 mi Calm Calm - N/A   Clear
7:39 AM 30.2 °F - 24.8 °F 80% 30.27 in 10.0 mi Calm Calm - N/A   Mostly Cloudy
7:49 AM 30.2 °F 26.7 °F 26.6 °F 86% 30.27 in 10.0 mi NW 3.5 mph - N/A   Scattered Clouds
7:52 AM 30.9 °F 27.5 °F 26.1 °F 82% 30.27 in 10.0 mi NNW 3.5 mph - N/A   Scattered Clouds
8:04 AM 32.0 °F - 26.6 °F 80% 30.28 in 10.0 mi Calm Calm - N/A   Mostly Cloudy
8:52 AM 36.0 °F 31.1 °F 28.0 °F 73% 30.30 in 10.0 mi NE 5.8 mph - N/A   Overcast
9:20 AM 37.4 °F 30.3 °F 26.6 °F 65% 30.28 in 10.0 mi ENE 10.4 mph 16.1 mph N/A   Scattered Clouds
9:44 AM 37.4 °F 30.8 °F 26.6 °F 65% 30.29 in 10.0 mi ENE 9.2 mph - N/A   Mostly Cloudy
9:52 AM 37.9 °F 32.1 °F 26.1 °F 62% 30.30 in 10.0 mi ENE 8.1 mph - N/A   Scattered Clouds
10:06 AM 37.4 °F 30.8 °F 26.6 °F 65% 30.29 in 10.0 mi NE 9.2 mph - N/A   Mostly Cloudy
10:52 AM 37.9 °F 31.5 °F 26.1 °F 62% 30.28 in 10.0 mi NE 9.2 mph - N/A   Mostly Cloudy
11:52 AM 37.9 °F 31.5 °F 26.1 °F 62% 30.24 in 10.0 mi ENE 9.2 mph - N/A   Mostly Cloudy
12:52 PM 39.0 °F 34.0 °F 27.0 °F 62% 30.23 in 10.0 mi NE 6.9 mph - N/A   Mostly Cloudy
1:52 PM 39.0 °F 34.0 °F 28.0 °F 65% 30.23 in 10.0 mi ENE 6.9 mph - N/A   Overcast
2:52 PM 37.9 °F 30.9 °F 28.0 °F 68% 30.23 in 10.0 mi ENE 10.4 mph - N/A   Overcast
3:52 PM 37.9 °F 30.9 °F 28.9 °F 70% 30.21 in 10.0 mi ENE 10.4 mph - N/A   Overcast
4:52 PM 37.9 °F 30.9 °F 30.0 °F 73% 30.19 in 10.0 mi ENE 10.4 mph - N/A   Overcast
6:52 PM 39.9 °F 31.4 °F 30.9 °F 70% 30.16 in 10.0 mi East 16.1 mph 23.0 mph N/A   Overcast
7:52 PM 39.9 °F 31.4 °F 32.0 °F 73% 30.12 in 10.0 mi East 16.1 mph 27.6 mph N/A   Overcast
8:52 PM 39.0 °F 29.0 °F 33.1 °F 79% 30.08 in 6.0 mi East 20.7 mph 29.9 mph 0.01 in Rain Light Rain
9:52 PM 39.0 °F 28.3 °F 35.1 °F 86% 30.02 in 5.0 mi East 24.2 mph 32.2 mph 0.07 in Rain Rain
10:08 PM 39.2 °F 30.2 °F 35.6 °F 87% 30.01 in 6.0 mi East 17.3 mph 31.1 mph 0.02 in Rain Light Rain
10:52 PM 39.0 °F 29.6 °F 35.1 °F 86% 29.99 in 6.0 mi East 18.4 mph 33.4 mph 0.05 in Rain Light Rain
11:52 PM 39.0 °F 28.3 °F 36.0 °F 89% 29.92 in 4.0 mi East 24.2 mph 31.1 mph 0.09 in Rain Rain